THY2TK OSAP-LTFM

Flight info

Callsign THY2TK
Flight time 1h 27m
Altitude 36000
Route GOLF B544 TUSYR UB36 GAZ UL605 YAVRU UA4 ERSEN
Aircraft B739/M-SDE2E3FGHIRWXY/LB1

Departure

Time 2026-04-24 21:30
Airport Aleppo International Airport (OSAP)

Arrival

Time 2026-04-24 22:57
Airport İstanbul Airport (LTFM)
Time Latitude Longitude Altitude Speed Heading
2026-04-24 21:13 36.18373 37.22691 1273 ft 0 kts 355°
2026-04-24 21:24 36.18375 37.22689 1273 ft 0 kts 340°
2026-04-24 21:25 36.18377 37.22684 1273 ft 1 kts 306°
2026-04-24 21:25 36.18376 37.22666 1274 ft 3 kts 258°
2026-04-24 21:25 36.18362 37.22640 1274 ft 5 kts 221°
2026-04-24 21:25 36.18347 37.22628 1274 ft 2 kts 208°
2026-04-24 21:26 36.18323 37.22626 1275 ft 5 kts 161°
2026-04-24 21:26 36.18305 37.22671 1273 ft 7 kts 103°
2026-04-24 21:26 36.18257 37.22701 1273 ft 10 kts 176°
2026-04-24 21:26 36.18205 37.22761 1272 ft 12 kts 104°
2026-04-24 21:27 36.18188 37.22880 1272 ft 16 kts 97°
2026-04-24 21:27 36.18174 37.23028 1271 ft 19 kts 96°
2026-04-24 21:27 36.18157 37.23197 1270 ft 21 kts 97°
2026-04-24 21:27 36.18145 37.23326 1269 ft 23 kts 96°
2026-04-24 21:28 36.18119 37.23602 1271 ft 20 kts 97°
2026-04-24 21:28 36.18099 37.23787 1267 ft 23 kts 101°
2026-04-24 21:28 36.18026 37.23962 1269 ft 23 kts 144°
2026-04-24 21:28 36.17926 37.23967 1269 ft 12 kts 235°
2026-04-24 21:29 36.17927 37.23874 1267 ft 9 kts 277°
2026-04-24 21:29 36.17953 37.23596 1269 ft 69 kts 277°
2026-04-24 21:29 36.18038 37.22697 1274 ft 138 kts 276°
2026-04-24 21:29 36.18149 37.21299 1398 ft 181 kts 272°
2026-04-24 21:30 36.18146 37.19767 2271 ft 176 kts 276°
2026-04-24 21:30 36.18315 37.18282 3129 ft 173 kts 280°
2026-04-24 21:30 36.18552 37.16825 3867 ft 178 kts 287°
2026-04-24 21:30 36.19324 37.15513 4049 ft 206 kts 326°
2026-04-24 21:31 36.20698 37.14742 4259 ft 228 kts 336°
2026-04-24 21:31 36.22231 37.14030 4560 ft 242 kts 337°
2026-04-24 21:31 36.23874 37.13285 4789 ft 261 kts 337°
2026-04-24 21:31 36.25615 37.12501 5286 ft 271 kts 337°
2026-04-24 21:32 36.27387 37.11703 6072 ft 271 kts 337°
2026-04-24 21:32 36.29169 37.10898 6797 ft 274 kts 336°
2026-04-24 21:32 36.30977 37.10079 7485 ft 278 kts 336°
2026-04-24 21:32 36.32807 37.09247 8180 ft 281 kts 336°
2026-04-24 21:33 36.34657 37.08404 8877 ft 285 kts 336°
2026-04-24 21:33 36.35895 37.07839 9334 ft 287 kts 335°
2026-04-24 21:33 36.38400 37.06694 10194 ft 293 kts 335°
2026-04-24 21:33 36.40379 37.05784 10427 ft 314 kts 335°
2026-04-24 21:34 36.42494 37.04809 10592 ft 334 kts 335°
2026-04-24 21:34 36.44746 37.03772 10748 ft 354 kts 336°
2026-04-24 21:34 36.47113 37.02683 10947 ft 370 kts 336°
2026-04-24 21:34 36.49557 37.01562 11427 ft 377 kts 336°
2026-04-24 21:35 36.52025 37.00433 12038 ft 379 kts 336°
2026-04-24 21:35 36.53667 36.99682 12442 ft 381 kts 336°
2026-04-24 21:35 36.56164 36.98537 13024 ft 384 kts 336°
2026-04-24 21:35 36.58677 36.97382 13591 ft 387 kts 335°
2026-04-24 21:36 36.61214 36.96215 14130 ft 390 kts 335°
2026-04-24 21:36 36.63770 36.95037 14653 ft 393 kts 335°
2026-04-24 21:36 36.66345 36.93849 15181 ft 396 kts 335°
2026-04-24 21:36 36.68942 36.92650 15708 ft 399 kts 335°
2026-04-24 21:37 36.71553 36.91444 16216 ft 402 kts 335°
2026-04-24 21:37 36.74183 36.90227 16708 ft 405 kts 335°
2026-04-24 21:37 36.76832 36.89001 17188 ft 408 kts 335°
2026-04-24 21:37 36.79508 36.87762 17662 ft 411 kts 335°
2026-04-24 21:38 36.82202 36.86513 18138 ft 414 kts 335°
2026-04-24 21:38 36.84918 36.85253 18575 ft 417 kts 335°
2026-04-24 21:38 36.87645 36.83988 19029 ft 419 kts 335°
2026-04-24 21:38 36.90383 36.82717 19488 ft 421 kts 334°
2026-04-24 21:39 36.93138 36.81436 19923 ft 423 kts 334°
2026-04-24 21:39 36.95907 36.80148 20362 ft 426 kts 334°
2026-04-24 21:39 36.98689 36.78852 20803 ft 428 kts 334°
2026-04-24 21:39 37.01489 36.77548 21239 ft 430 kts 334°
2026-04-24 21:40 37.04306 36.76234 21662 ft 432 kts 334°
2026-04-24 21:40 37.07097 36.74932 22061 ft 435 kts 334°
2026-04-24 21:40 37.09976 36.73587 22444 ft 437 kts 334°
2026-04-24 21:40 37.12836 36.72249 22821 ft 440 kts 334°
2026-04-24 21:41 37.15676 36.70921 23184 ft 443 kts 334°
2026-04-24 21:41 37.18569 36.69566 23533 ft 446 kts 334°
2026-04-24 21:41 37.21482 36.68201 23839 ft 447 kts 334°
2026-04-24 21:41 37.24398 36.66834 24187 ft 448 kts 333°
2026-04-24 21:42 37.27327 36.65460 24506 ft 450 kts 333°
2026-04-24 21:42 37.30267 36.64080 24835 ft 452 kts 333°
2026-04-24 21:42 37.33217 36.62692 25168 ft 453 kts 333°
2026-04-24 21:42 37.36178 36.61299 25500 ft 455 kts 333°
2026-04-24 21:43 37.39143 36.59902 25825 ft 456 kts 333°
2026-04-24 21:43 37.42123 36.58498 26120 ft 458 kts 333°
2026-04-24 21:43 37.45110 36.57089 26369 ft 460 kts 333°
2026-04-24 21:43 37.48108 36.55674 26588 ft 461 kts 332°
2026-04-24 21:44 37.51109 36.54255 26947 ft 461 kts 332°
2026-04-24 21:44 37.54119 36.52831 27275 ft 463 kts 332°
2026-04-24 21:44 37.57140 36.51401 27576 ft 464 kts 332°
2026-04-24 21:44 37.60166 36.49969 27918 ft 464 kts 332°
2026-04-24 21:45 37.63142 36.48450 28391 ft 456 kts 326°
2026-04-24 21:45 37.65838 36.46456 28878 ft 444 kts 317°
2026-04-24 21:45 37.68242 36.44079 29291 ft 435 kts 310°
2026-04-24 21:45 37.70294 36.41328 29626 ft 428 kts 304°
2026-04-24 21:46 37.72244 36.38486 29980 ft 428 kts 304°
2026-04-24 21:46 37.74208 36.35673 30373 ft 426 kts 304°
2026-04-24 21:46 37.76170 36.32871 30719 ft 425 kts 304°
2026-04-24 21:46 37.78115 36.30069 30991 ft 425 kts 304°
2026-04-24 21:47 37.80062 36.27255 31262 ft 425 kts 304°
2026-04-24 21:47 37.82008 36.24446 31567 ft 424 kts 304°
2026-04-24 21:47 37.83951 36.21643 31864 ft 424 kts 304°
2026-04-24 21:47 37.85904 36.18851 32150 ft 424 kts 304°
2026-04-24 21:48 37.87863 36.16072 32485 ft 423 kts 304°
2026-04-24 21:48 37.89822 36.13301 32792 ft 422 kts 304°
2026-04-24 21:48 37.91748 36.10571 33058 ft 421 kts 304°
2026-04-24 21:48 37.93696 36.07805 33348 ft 421 kts 304°
2026-04-24 21:49 37.95641 36.05037 33578 ft 420 kts 304°
2026-04-24 21:49 37.97581 36.02272 33841 ft 420 kts 304°
2026-04-24 21:49 37.99517 35.99510 34100 ft 419 kts 304°
2026-04-24 21:49 38.01449 35.96751 34327 ft 418 kts 304°
2026-04-24 21:50 38.03380 35.93990 34519 ft 418 kts 304°
2026-04-24 21:50 38.05311 35.91227 34704 ft 418 kts 304°
2026-04-24 21:50 38.07241 35.88463 34909 ft 418 kts 304°
2026-04-24 21:50 38.09168 35.85700 35076 ft 418 kts 304°
2026-04-24 21:51 38.11096 35.82934 35215 ft 419 kts 304°
2026-04-24 21:51 38.13027 35.80163 35387 ft 419 kts 304°
2026-04-24 21:51 38.14956 35.77393 35556 ft 419 kts 304°
2026-04-24 21:51 38.16885 35.74613 35707 ft 419 kts 303°
2026-04-24 21:52 38.18807 35.71838 35872 ft 418 kts 304°
2026-04-24 21:52 38.20728 35.69058 36001 ft 419 kts 304°
2026-04-24 21:52 38.22653 35.66270 36025 ft 419 kts 304°
2026-04-24 21:53 38.26495 35.60701 36043 ft 419 kts 304°
2026-04-24 21:53 38.30334 35.55128 36027 ft 418 kts 303°
2026-04-24 21:54 38.34161 35.49564 36044 ft 418 kts 303°
2026-04-24 21:54 38.37987 35.43988 36049 ft 418 kts 303°
2026-04-24 21:55 38.41814 35.38404 36045 ft 418 kts 303°
2026-04-24 21:55 38.45641 35.32809 36047 ft 419 kts 303°
2026-04-24 21:56 38.49468 35.27204 36054 ft 419 kts 303°
2026-04-24 21:56 38.53287 35.21594 36056 ft 418 kts 303°
2026-04-24 21:57 38.57047 35.15934 36053 ft 416 kts 303°
2026-04-24 21:57 38.60768 35.10285 36059 ft 414 kts 303°
2026-04-24 21:58 38.64472 35.04661 36065 ft 413 kts 303°
2026-04-24 21:58 38.68172 34.99041 36064 ft 412 kts 303°
2026-04-24 21:59 38.71861 34.93431 36073 ft 411 kts 303°
2026-04-24 21:59 38.75544 34.87822 36075 ft 411 kts 303°
2026-04-24 22:00 38.79205 34.82235 36084 ft 412 kts 303°
2026-04-24 22:00 38.82892 34.76598 36078 ft 413 kts 303°
2026-04-24 22:01 38.86584 34.70944 36077 ft 414 kts 303°
2026-04-24 22:01 38.90278 34.65279 36076 ft 414 kts 303°
2026-04-24 22:02 38.93972 34.59603 36072 ft 414 kts 303°
2026-04-24 22:02 38.97660 34.53926 36083 ft 414 kts 303°
2026-04-24 22:03 39.01351 34.48233 36078 ft 414 kts 303°
2026-04-24 22:03 39.05038 34.42536 36069 ft 414 kts 303°
2026-04-24 22:04 39.08721 34.36837 36075 ft 414 kts 303°
2026-04-24 22:04 39.12137 34.30933 36068 ft 406 kts 294°
2026-04-24 22:05 39.15393 34.24937 36078 ft 413 kts 303°
2026-04-24 22:05 39.19108 34.19272 36079 ft 414 kts 304°
2026-04-24 22:06 39.22822 34.13591 36069 ft 415 kts 304°
2026-04-24 22:06 39.26517 34.07881 36070 ft 414 kts 304°
2026-04-24 22:07 39.30204 34.02159 36051 ft 415 kts 304°
2026-04-24 22:07 39.33892 33.96432 36069 ft 415 kts 304°
2026-04-24 22:08 39.37613 33.90710 36054 ft 416 kts 304°
2026-04-24 22:08 39.41343 33.84979 36069 ft 417 kts 304°
2026-04-24 22:09 39.45079 33.79218 36063 ft 419 kts 304°
2026-04-24 22:09 39.48761 33.73367 36059 ft 419 kts 303°
2026-04-24 22:10 39.52384 33.67443 36052 ft 420 kts 303°
2026-04-24 22:10 39.56034 33.61511 36063 ft 421 kts 304°
2026-04-24 22:11 39.59726 33.55597 36057 ft 423 kts 305°
2026-04-24 22:11 39.63491 33.49733 36063 ft 423 kts 306°
2026-04-24 22:12 39.67265 33.43859 36053 ft 424 kts 306°
2026-04-24 22:12 39.71029 33.37971 36060 ft 424 kts 306°
2026-04-24 22:13 39.74760 33.32112 36062 ft 424 kts 306°
2026-04-24 22:13 39.78513 33.26206 36055 ft 424 kts 306°
2026-04-24 22:14 39.82267 33.20286 36051 ft 424 kts 306°
2026-04-24 22:14 39.86015 33.14365 36065 ft 424 kts 306°
2026-04-24 22:15 39.89762 33.08434 36067 ft 424 kts 306°
2026-04-24 22:15 39.93511 33.02489 36075 ft 425 kts 306°
2026-04-24 22:16 39.97265 32.96524 36068 ft 426 kts 306°
2026-04-24 22:16 40.01020 32.90545 36080 ft 426 kts 306°
2026-04-24 22:17 40.04777 32.84555 36071 ft 427 kts 306°
2026-04-24 22:17 40.08445 32.78465 36082 ft 426 kts 303°
2026-04-24 22:18 40.11816 32.72107 36075 ft 426 kts 302°
2026-04-24 22:18 40.15149 32.65703 36077 ft 426 kts 302°
2026-04-24 22:19 40.17941 32.60381 36066 ft 427 kts 302°
2026-04-24 22:19 40.21313 32.53983 36078 ft 427 kts 302°
2026-04-24 22:20 40.25234 32.46543 36072 ft 428 kts 302°
2026-04-24 22:20 40.28611 32.40122 36083 ft 428 kts 302°
2026-04-24 22:21 40.31435 32.34738 36076 ft 428 kts 303°
2026-04-24 22:21 40.34808 32.28298 36082 ft 429 kts 302°
2026-04-24 22:22 40.38161 32.21881 36077 ft 429 kts 303°
2026-04-24 22:22 40.41535 32.15414 36085 ft 430 kts 303°
2026-04-24 22:23 40.44909 32.08937 36084 ft 430 kts 303°
2026-04-24 22:23 40.48286 32.02444 36079 ft 431 kts 303°
2026-04-24 22:24 40.51663 31.95938 36092 ft 431 kts 303°
2026-04-24 22:24 40.55044 31.89411 36090 ft 432 kts 303°
2026-04-24 22:25 40.58254 31.82737 36082 ft 432 kts 295°
2026-04-24 22:25 40.60281 31.75319 36098 ft 431 kts 287°
2026-04-24 22:26 40.62094 31.67783 36088 ft 433 kts 287°
2026-04-24 22:26 40.63934 31.60222 36091 ft 433 kts 288°
2026-04-24 22:27 40.65792 31.52660 36090 ft 434 kts 288°
2026-04-24 22:27 40.67655 31.45085 36091 ft 435 kts 288°
2026-04-24 22:28 40.69517 31.37490 36077 ft 436 kts 288°
2026-04-24 22:28 40.71376 31.29882 36084 ft 436 kts 288°
2026-04-24 22:29 40.74159 31.18442 36066 ft 437 kts 288°
2026-04-24 22:29 40.76009 31.10805 36074 ft 437 kts 288°
2026-04-24 22:30 40.77845 31.03204 36058 ft 437 kts 288°
2026-04-24 22:30 40.78755 30.99427 35776 ft 443 kts 288°
2026-04-24 22:30 40.79696 30.95514 35101 ft 449 kts 288°
2026-04-24 22:31 40.80640 30.91583 34369 ft 449 kts 288°
2026-04-24 22:31 40.81583 30.87648 33541 ft 451 kts 289°
2026-04-24 22:31 40.82528 30.83700 32695 ft 452 kts 289°
2026-04-24 22:31 40.83470 30.79754 32090 ft 448 kts 289°
2026-04-24 22:32 40.84399 30.75855 31508 ft 443 kts 290°
2026-04-24 22:32 40.85319 30.71991 30954 ft 439 kts 290°
2026-04-24 22:32 40.86238 30.68157 30416 ft 435 kts 291°
2026-04-24 22:32 40.87388 30.64497 29601 ft 432 kts 301°
2026-04-24 22:33 40.88869 30.61051 28935 ft 428 kts 302°
2026-04-24 22:33 40.90354 30.57655 28314 ft 424 kts 302°
2026-04-24 22:33 40.91817 30.54294 27781 ft 419 kts 302°
2026-04-24 22:33 40.93257 30.50964 27240 ft 415 kts 302°
2026-04-24 22:34 40.94671 30.47670 26726 ft 410 kts 302°
2026-04-24 22:34 40.96071 30.44394 26209 ft 407 kts 302°
2026-04-24 22:34 40.97453 30.41148 25695 ft 403 kts 301°
2026-04-24 22:34 40.98821 30.37926 25192 ft 400 kts 301°
2026-04-24 22:35 41.00158 30.34772 24695 ft 397 kts 301°
2026-04-24 22:35 41.01504 30.31593 24205 ft 394 kts 301°
2026-04-24 22:35 41.02838 30.28441 23715 ft 391 kts 301°
2026-04-24 22:35 41.04164 30.25302 23142 ft 389 kts 301°
2026-04-24 22:36 41.05480 30.22184 22600 ft 386 kts 301°
2026-04-24 22:36 41.06783 30.19093 22117 ft 382 kts 301°
2026-04-24 22:36 41.08073 30.16030 21622 ft 379 kts 301°
2026-04-24 22:36 41.09350 30.12995 21127 ft 375 kts 301°
2026-04-24 22:37 41.10615 30.09987 20662 ft 372 kts 301°
2026-04-24 22:37 41.11869 30.07003 20191 ft 369 kts 301°
2026-04-24 22:37 41.13112 30.04040 19736 ft 366 kts 301°
2026-04-24 22:37 41.14346 30.01095 19280 ft 364 kts 301°
2026-04-24 22:38 41.15570 29.98172 18822 ft 362 kts 301°
2026-04-24 22:38 41.16788 29.95262 18367 ft 359 kts 300°
2026-04-24 22:38 41.17998 29.92368 17858 ft 357 kts 300°
2026-04-24 22:38 41.19198 29.89495 17367 ft 355 kts 300°
2026-04-24 22:39 41.20388 29.86642 16915 ft 351 kts 300°
2026-04-24 22:39 41.21566 29.83815 16453 ft 348 kts 300°
2026-04-24 22:39 41.22734 29.81010 16016 ft 345 kts 300°
2026-04-24 22:39 41.23875 29.78265 15576 ft 342 kts 300°
2026-04-24 22:40 41.25037 29.75471 15133 ft 340 kts 300°
2026-04-24 22:40 41.26157 29.72772 14708 ft 337 kts 300°
2026-04-24 22:40 41.27301 29.70016 14282 ft 334 kts 299°
2026-04-24 22:40 41.28404 29.67355 13854 ft 332 kts 299°
2026-04-24 22:41 41.29514 29.64672 13372 ft 330 kts 299°
2026-04-24 22:41 41.30616 29.62009 12925 ft 327 kts 299°
2026-04-24 22:41 41.31706 29.59371 12499 ft 324 kts 299°
2026-04-24 22:41 41.32787 29.56752 12070 ft 321 kts 300°
2026-04-24 22:42 41.33871 29.54124 11635 ft 319 kts 300°
2026-04-24 22:42 41.34936 29.51542 11197 ft 317 kts 300°
2026-04-24 22:42 41.35993 29.48974 10777 ft 316 kts 300°
2026-04-24 22:42 41.37035 29.46440 10561 ft 306 kts 300°
2026-04-24 22:43 41.38041 29.43992 10420 ft 296 kts 300°
2026-04-24 22:43 41.39000 29.41657 10289 ft 286 kts 300°
2026-04-24 22:43 41.39948 29.39345 10167 ft 276 kts 300°
2026-04-24 22:43 41.40852 29.37140 10049 ft 266 kts 300°
2026-04-24 22:44 41.41726 29.35009 9852 ft 260 kts 301°
2026-04-24 22:44 41.42578 29.32931 9587 ft 256 kts 301°
2026-04-24 22:44 41.43426 29.30859 9293 ft 254 kts 301°
2026-04-24 22:44 41.44265 29.28809 9008 ft 250 kts 301°
2026-04-24 22:45 41.45092 29.26786 8741 ft 247 kts 301°
2026-04-24 22:45 41.45911 29.24783 8480 ft 244 kts 301°
2026-04-24 22:45 41.46719 29.22804 8217 ft 243 kts 301°
2026-04-24 22:45 41.47530 29.20817 7955 ft 246 kts 301°
2026-04-24 22:46 41.48361 29.18782 7707 ft 253 kts 300°
2026-04-24 22:46 41.49212 29.16695 7432 ft 257 kts 300°
2026-04-24 22:46 41.50061 29.14608 7142 ft 255 kts 300°
2026-04-24 22:46 41.50903 29.12536 6860 ft 253 kts 300°
2026-04-24 22:47 41.51738 29.10481 6585 ft 251 kts 300°
2026-04-24 22:47 41.52564 29.08446 6301 ft 248 kts 300°
2026-04-24 22:47 41.53383 29.06429 6023 ft 246 kts 300°
2026-04-24 22:47 41.54193 29.04433 5737 ft 244 kts 300°
2026-04-24 22:48 41.54996 29.02454 5461 ft 241 kts 300°
2026-04-24 22:48 41.55787 29.00501 5278 ft 235 kts 299°
2026-04-24 22:48 41.56549 28.98617 5164 ft 227 kts 300°
2026-04-24 22:48 41.57268 28.96751 5041 ft 226 kts 290°
2026-04-24 22:49 41.57372 28.94720 5010 ft 224 kts 257°
2026-04-24 22:49 41.56654 28.92902 5022 ft 220 kts 234°
2026-04-24 22:49 41.55701 28.91373 5003 ft 208 kts 232°
2026-04-24 22:49 41.54764 28.89929 5016 ft 206 kts 232°
2026-04-24 22:50 41.53824 28.88488 4994 ft 205 kts 232°
2026-04-24 22:50 41.52882 28.87045 4748 ft 208 kts 232°
2026-04-24 22:50 41.51959 28.85632 4571 ft 197 kts 232°
2026-04-24 22:50 41.51085 28.84296 4371 ft 185 kts 232°
2026-04-24 22:51 41.50251 28.83028 4188 ft 180 kts 232°
2026-04-24 22:51 41.49434 28.81782 4016 ft 176 kts 232°
2026-04-24 22:51 41.48568 28.80630 3836 ft 179 kts 214°
2026-04-24 22:51 41.47460 28.79904 3697 ft 177 kts 209°
2026-04-24 22:52 41.46352 28.79201 3529 ft 175 kts 209°
2026-04-24 22:52 41.45257 28.78505 3389 ft 174 kts 208°
2026-04-24 22:52 41.44164 28.77807 3228 ft 175 kts 209°
2026-04-24 22:52 41.43061 28.77103 3061 ft 177 kts 208°
2026-04-24 22:53 41.41959 28.76393 2870 ft 174 kts 209°
2026-04-24 22:53 41.40894 28.75715 2643 ft 165 kts 209°
2026-04-24 22:53 41.39884 28.75084 2412 ft 155 kts 208°
2026-04-24 22:53 41.38976 28.74521 2186 ft 139 kts 208°
2026-04-24 22:54 41.38121 28.73990 1910 ft 129 kts 209°
2026-04-24 22:54 41.37331 28.73495 1643 ft 128 kts 209°
2026-04-24 22:54 41.36515 28.72997 1463 ft 130 kts 205°
2026-04-24 22:54 41.35602 28.72763 1257 ft 135 kts 189°
2026-04-24 22:55 41.34671 28.72655 1163 ft 137 kts 186°
2026-04-24 22:55 41.33728 28.72632 1023 ft 140 kts 182°
2026-04-24 22:55 41.32777 28.72648 837 ft 134 kts 181°
2026-04-24 22:55 41.31852 28.72656 650 ft 131 kts 180°
2026-04-24 22:56 41.30936 28.72671 516 ft 132 kts 178°
2026-04-24 22:56 41.30025 28.72701 384 ft 131 kts 179°
2026-04-24 22:56 41.29134 28.72717 330 ft 118 kts 179°
2026-04-24 22:56 41.28481 28.72732 331 ft 68 kts 179°
2026-04-24 22:57 41.28039 28.72741 333 ft 46 kts 179°
2026-04-24 22:57 41.27784 28.72825 330 ft 26 kts 149°
2026-04-24 22:57 41.27632 28.72945 331 ft 23 kts 152°
2026-04-24 22:57 41.27476 28.72973 332 ft 23 kts 177°
2026-04-24 22:58 41.27322 28.72979 332 ft 22 kts 179°
2026-04-24 22:58 41.27171 28.72983 330 ft 21 kts 179°
2026-04-24 22:58 41.27025 28.72986 333 ft 21 kts 179°
2026-04-24 22:58 41.26886 28.73003 333 ft 20 kts 147°
2026-04-24 22:59 41.26867 28.73176 332 ft 19 kts 89°
2026-04-24 22:59 41.26869 28.73352 331 ft 17 kts 89°
2026-04-24 22:59 41.26790 28.73442 329 ft 7 kts 179°
2026-04-24 23:00 41.26781 28.73442 329 ft 0 kts 179°